• In Deutschland
  • Länderverzeichnis
  • Für 7 Tage
  • Wassertemperatur
  • Satellitenkarten
  • Wetterkarte
  • Widgets
  • user-avatar
    Anmelden

    Stündliche Wetter Graz

    Heute, 26 Mai, Samstag

    Zeit Temperatur Niederschläge Wind Luftdruck Luftfeuchtigkeit
    00:00 +13°C° 0 mm 0 m/S 727 mmHg 96%
    01:00 +13°C° 0 mm 0 m/S 727 mmHg 96%
    02:00 +13°C° 0 mm 0 m/S 727 mmHg 96%
    03:00 +13°C° 0 mm 0 m/S 727 mmHg 96%
    04:00 +14°C° 0 mm 1 m/S 727 mmHg 96%
    05:00 +14°C° 0 mm 0 m/S 727 mmHg 93%
    06:00 +16°C° 0 mm 0 m/S 728 mmHg 89%
    07:00 +18°C° 0 mm 0 m/S 728 mmHg 84%
    08:00 +20°C° 0,1 mm 0 m/S 728 mmHg 76%
    09:00 +23°C° 0,1 mm 1 m/S 728 mmHg 69%
    10:00 +25°C° 0,1 mm 1 m/S 728 mmHg 61%
    11:00 +25°C° 0,4 mm 1 m/S 728 mmHg 61%
    12:00 +26°C° 0,4 mm 1 m/S 728 mmHg 60%
    13:00 +26°C° 0,4 mm 1 m/S 728 mmHg 60%
    14:00 +26°C° 0,7 mm 1 m/S 728 mmHg 63%
    15:00 +25°C° 0,7 mm 1 m/S 727 mmHg 66%
    16:00 +25°C° 0,7 mm 1 m/S 727 mmHg 69%
    17:00 +23°C° 0,5 mm 1 m/S 727 mmHg 74%
    18:00 +22°C° 0,5 mm 1 m/S 727 mmHg 79%
    19:00 +21°C° 0,5 mm 1 m/S 727 mmHg 85%
    20:00 +20°C° 0,1 mm 1 m/S 727 mmHg 87%
    21:00 +17°C° 0,1 mm 0 m/S 728 mmHg 89%
    22:00 +16°C° 0,1 mm 0 m/S 728 mmHg 91%
    23:00 +15°C° 0 mm 0 m/S 728 mmHg 91%

    Morgen, 27 Mai, Sonntag

    Zeit Temperatur Niederschläge Wind Luftdruck Luftfeuchtigkeit
    00:00 +16°C° 0 mm 1 m/S 728 mmHg 92%
    01:00 +16°C° 0 mm 1 m/S 727 mmHg 93%
    02:00 +15°C° 0 mm 1 m/S 727 mmHg 93%
    03:00 +15°C° 0 mm 1 m/S 727 mmHg 94%
    04:00 +15°C° 0 mm 1 m/S 727 mmHg 94%
    05:00 +16°C° 0 mm 0 m/S 727 mmHg 90%
    06:00 +17°C° 0 mm 0 m/S 727 mmHg 86%
    07:00 +19°C° 0 mm 0 m/S 728 mmHg 82%
    08:00 +23°C° 0 mm 1 m/S 728 mmHg 74%
    09:00 +25°C° 0 mm 1 m/S 728 mmHg 67%
    10:00 +26°C° 0 mm 1 m/S 728 mmHg 59%
    11:00 +27°C° 0,4 mm 1 m/S 727 mmHg 59%
    12:00 +27°C° 0,4 mm 2 m/S 727 mmHg 58%
    13:00 +27°C° 0,4 mm 2 m/S 727 mmHg 58%
    14:00 +27°C° 0,8 mm 2 m/S 727 mmHg 60%
    15:00 +27°C° 0,8 mm 1 m/S 727 mmHg 61%
    16:00 +27°C° 0,8 mm 1 m/S 726 mmHg 63%
    17:00 +25°C° 0,8 mm 1 m/S 726 mmHg 70%
    18:00 +24°C° 0,8 mm 1 m/S 726 mmHg 76%
    19:00 +22°C° 0,8 mm 1 m/S 726 mmHg 83%
    20:00 +19°C° 1,6 mm 0 m/S 726 mmHg 86%
    21:00 +18°C° 1,6 mm 0 m/S 726 mmHg 89%
    22:00 +17°C° 1,6 mm 0 m/S 727 mmHg 91%
    23:00 +17°C° 0,9 mm 0 m/S 727 mmHg 92%

    übermorgen, 28 Mai, Montag

    Zeit Temperatur Niederschläge Wind Luftdruck Luftfeuchtigkeit
    00:00 +17°C° 0,9 mm 0 m/S 727 mmHg 93%
    01:00 +19°C° 0,9 mm 1 m/S 727 mmHg 93%
    02:00 +19°C° 0,1 mm 1 m/S 727 mmHg 93%
    03:00 +18°C° 0,1 mm 1 m/S 726 mmHg 94%
    04:00 +18°C° 0,1 mm 1 m/S 726 mmHg 94%
    05:00 +17°C° 0,3 mm 0 m/S 727 mmHg 91%
    06:00 +19°C° 0,3 mm 0 m/S 727 mmHg 88%
    07:00 +20°C° 0,3 mm 0 m/S 727 mmHg 85%
    08:00 +23°C° 0,5 mm 1 m/S 727 mmHg 79%
    09:00 +25°C° 0,5 mm 1 m/S 727 mmHg 73%
    10:00 +26°C° 0,5 mm 1 m/S 727 mmHg 67%
    11:00 +27°C° 0,9 mm 2 m/S 727 mmHg 66%
    12:00 +27°C° 0,9 mm 2 m/S 727 mmHg 64%
    13:00 +27°C° 0,9 mm 2 m/S 727 mmHg 63%
    14:00 +27°C° 0,7 mm 2 m/S 726 mmHg 64%
    15:00 +27°C° 0,7 mm 2 m/S 726 mmHg 66%
    16:00 +26°C° 0,7 mm 2 m/S 726 mmHg 68%
    17:00 +25°C° 0,4 mm 1 m/S 726 mmHg 74%
    18:00 +24°C° 0,4 mm 1 m/S 726 mmHg 79%
    19:00 +23°C° 0,4 mm 1 m/S 726 mmHg 85%
    20:00 +22°C° 0,5 mm 1 m/S 726 mmHg 88%
    21:00 +21°C° 0,5 mm 1 m/S 726 mmHg 90%
    22:00 +20°C° 0,5 mm 1 m/S 726 mmHg 93%
    23:00 +20°C° 0,1 mm 1 m/S 726 mmHg 93%

    29 Mai, Dienstag

    Zeit Temperatur Niederschläge Wind Luftdruck Luftfeuchtigkeit
    00:00 +19°C° 0,1 mm 1 m/S 726 mmHg 94%
    01:00 +19°C° 0,1 mm 1 m/S 726 mmHg 95%
    02:00 +17°C° 0,1 mm 0 m/S 726 mmHg 95%
    03:00 +16°C° 0,1 mm 0 m/S 725 mmHg 95%
    04:00 +16°C° 0,1 mm 0 m/S 725 mmHg 96%
    05:00 +19°C° 0 mm 1 m/S 725 mmHg 93%
    06:00 +21°C° 0 mm 1 m/S 725 mmHg 90%
    07:00 +22°C° 0 mm 1 m/S 725 mmHg 87%
    08:00 +23°C° 0,1 mm 1 m/S 726 mmHg 80%
    09:00 +25°C° 0,1 mm 2 m/S 726 mmHg 72%
    10:00 +26°C° 0,1 mm 2 m/S 726 mmHg 65%
    11:00 +26°C° 0,4 mm 2 m/S 725 mmHg 63%
    12:00 +27°C° 0,4 mm 3 m/S 725 mmHg 62%
    13:00 +27°C° 0,4 mm 3 m/S 725 mmHg 60%
    14:00 +27°C° 0,7 mm 3 m/S 724 mmHg 63%
    15:00 +26°C° 0,7 mm 3 m/S 724 mmHg 66%
    16:00 +26°C° 0,7 mm 3 m/S 723 mmHg 69%
    17:00 +25°C° 0,5 mm 2 m/S 723 mmHg 75%
    18:00 +23°C° 0,5 mm 2 m/S 723 mmHg 80%
    19:00 +22°C° 0,5 mm 1 m/S 723 mmHg 86%
    20:00 +21°C° 0,5 mm 1 m/S 723 mmHg 87%
    21:00 +21°C° 0,5 mm 1 m/S 723 mmHg 89%
    22:00 +20°C° 0,5 mm 1 m/S 723 mmHg 91%
    23:00 +19°C° 0,1 mm 1 m/S 723 mmHg 92%

    30 Mai, Mittwoch

    Zeit Temperatur Niederschläge Wind Luftdruck Luftfeuchtigkeit
    00:00 +19°C° 0,1 mm 1 m/S 723 mmHg 92%
    01:00 +17°C° 0,1 mm 0 m/S 723 mmHg 93%
    02:00 +16°C° 0 mm 0 m/S 723 mmHg 94%
    03:00 +18°C° 0 mm 1 m/S 723 mmHg 94%
    04:00 +18°C° 0 mm 1 m/S 723 mmHg 95%
    05:00 +19°C° 0 mm 1 m/S 723 mmHg 92%
    06:00 +20°C° 0 mm 1 m/S 723 mmHg 89%
    07:00 +19°C° 0 mm 0 m/S 723 mmHg 85%
    08:00 +23°C° 0 mm 1 m/S 723 mmHg 78%
    09:00 +25°C° 0 mm 1 m/S 723 mmHg 70%
    10:00 +26°C° 0 mm 1 m/S 723 mmHg 62%
    11:00 +26°C° 0,2 mm 1 m/S 723 mmHg 62%
    12:00 +27°C° 0,2 mm 1 m/S 723 mmHg 62%
    13:00 +27°C° 0,2 mm 2 m/S 722 mmHg 62%
    14:00 +27°C° 1 mm 2 m/S 722 mmHg 65%
    15:00 +26°C° 1 mm 2 m/S 722 mmHg 68%
    16:00 +26°C° 1 mm 2 m/S 722 mmHg 71%
    17:00 +25°C° 0,9 mm 1 m/S 722 mmHg 77%
    18:00 +24°C° 0,9 mm 1 m/S 722 mmHg 82%
    19:00 +23°C° 0,9 mm 1 m/S 722 mmHg 88%
    20:00 +22°C° 0,1 mm 1 m/S 722 mmHg 90%
    21:00 +21°C° 0,1 mm 1 m/S 722 mmHg 91%
    22:00 +20°C° 0,1 mm 1 m/S 722 mmHg 93%
    23:00 +20°C° 0,3 mm 1 m/S 722 mmHg 94%

    31 Mai, Donnerstag

    Zeit Temperatur Niederschläge Wind Luftdruck Luftfeuchtigkeit
    00:00 +19°C° 0,3 mm 1 m/S 721 mmHg 95%
    01:00 +19°C° 0,3 mm 1 m/S 721 mmHg 96%
    02:00 +18°C° 0,1 mm 1 m/S 721 mmHg 96%
    03:00 +18°C° 0,1 mm 1 m/S 721 mmHg 96%
    04:00 +18°C° 0,1 mm 1 m/S 721 mmHg 97%
    05:00 +19°C° 0,1 mm 1 m/S 722 mmHg 94%
    06:00 +18°C° 0,1 mm 0 m/S 722 mmHg 91%
    07:00 +20°C° 0,1 mm 0 m/S 722 mmHg 88%
    08:00 +23°C° 0,2 mm 1 m/S 722 mmHg 83%
    09:00 +24°C° 0,2 mm 1 m/S 722 mmHg 78%
    10:00 +25°C° 0,2 mm 1 m/S 722 mmHg 72%
    11:00 +25°C° 1 mm 1 m/S 722 mmHg 73%
    12:00 +25°C° 1 mm 1 m/S 722 mmHg 75%
    13:00 +25°C° 1 mm 1 m/S 722 mmHg 76%
    14:00 +25°C° 1,1 mm 1 m/S 722 mmHg 77%
    15:00 +25°C° 1,1 mm 1 m/S 722 mmHg 79%
    16:00 +25°C° 1,1 mm 1 m/S 722 mmHg 81%
    17:00 +24°C° 0,5 mm 1 m/S 722 mmHg 84%
    18:00 +21°C° 0,5 mm 0 m/S 722 mmHg 87%
    19:00 +20°C° 0,5 mm 0 m/S 722 mmHg 91%
    20:00 +19°C° 0,4 mm 0 m/S 722 mmHg 92%
    21:00 +18°C° 0,4 mm 0 m/S 722 mmHg 92%
    22:00 +18°C° 0,4 mm 0 m/S 722 mmHg 93%
    23:00 +17°C° 0,4 mm 0 m/S 722 mmHg 93%
    Mehr zeigen